sat.trackr.live / text

‹ back to catalog

ONEWEB-0113

NORAD 48050 · 2021-025J

PAYLOAD ACTIVE UNKNOWN

§ Identity

Operator
Country
UK
Launch date
2021-03-25
Launch site
VOSTO
Launch vehicle
Mass (kg)
RCS (m²)

Purposes: comms

External: N2YO · Heavens-Above · Gunter

§ Orbital elements

Epoch: 2026-09-09T14:55:22.947168Z

Period
109.60 min
Inclination
87.8933°
Eccentricity
0.0001883
Mean motion
13.13891053 rev/d
Perigee alt
1,206.7 km
Apogee alt
1,209.6 km
Semi-major
7,586.3 km
B*
-2.8523e-4
RAAN
303.3281°
Arg perigee
101.8827°
Mean anomaly
258.2513°
Rev number
26,469

§ Raw data

ONEWEB-01131 48050U 21025J   26252.62179337 -.00000092  00000+0 -28523-3 0  99972 48050  87.8933 303.3281 0001883 101.8827 258.2513 13.13891053264691

JSON: /api/v1/satellites/48050 · /tle

For live sub-satellite position, see the globe view (requires WebGL).

§ Visibility from observer

Set your observer location to see the next 7 days of passes ≥ 10°. The values pass through the URL so the page stays shareable.

No JS? Fill the form by hand. The geolocation button needs JavaScript.